Weather History for Ashland, WI

Change the Weather History Date:

Tuesday, December 4, 2012

  Actual Average Record
Temperature  
Mean Temperature 27 °F -  
Max Temperature 39 °F 29 °F 57 °F (1962)
Min Temperature 15 °F 11 °F -9 °F (1972)
Degree Days  
Heating Degree Days 38    
Moisture  
Dew Point 14 °F    
Average Humidity 62    
Maximum Humidity 78    
Minimum Humidity 51    
Precipitation  
Precipitation 0.00 in - - ()
Sea Level Pressure  
Sea Level Pressure 30.13 in    
Wind  
Wind Speed 14 mph (West)    
Max Wind Speed 18 mph    
Max Gust Speed 29 mph    
Visibility 10 miles    
Events      
Averages and records for this station are not official NWS values.
T = Trace of Precipitation, MM = Missing Value Source: NWS Daily Summary

Daily Weather History Graph

Daily Weather History Graph

Search for Another Location

Airport:

Trip Planner

Search our weather history database for the weather conditions in past years. The results will help you decide how hot, cold, wet, or windy it might be!

Date:

Astronomy

Dec. 04, 2012 Rise Set
Actual Time 7:31 AM CST 4:16 PM CST
Civil Twilight 6:56 AM CST 4:51 PM CST
Nautical Twilight 6:18 AM CST 5:29 PM CST
Astronomical Twilight 5:42 AM CST 6:06 PM CST
Moon 10:18 PM CST (12/4) 11:12 AM CST (12/4)
Length of Visible Light 9h 54m
Length of Day
8h 45m
Waning Gibbous, 69% of the Moon is Illuminated
Dec 4
Waning Gibbous
Dec 6
Last Quarter
Dec 13
New
Dec 19
First Quarter
Dec 28
Full

Hourly Weather History & Observations

Time (CST) Temp. Windchill Dew Point Humidity Pressure Visibility Wind Dir Wind Speed Gust Speed Precip Events Conditions
12:53 AM 39.9 °F 31.4 °F 30.0 °F 68% 29.76 in 10.0 mi WSW 16.1 mph 28.8 mph N/A   Clear
1:53 AM 37.9 °F 28.2 °F 27.0 °F 65% 29.80 in 10.0 mi West 18.4 mph 25.3 mph N/A   Clear
2:53 AM 36.0 °F 26.3 °F 25.0 °F 64% 29.83 in 10.0 mi West 16.1 mph 23.0 mph N/A   Clear
3:53 AM 34.0 °F 23.8 °F 21.0 °F 59% 29.86 in 10.0 mi West 16.1 mph 27.6 mph N/A   Clear
4:53 AM 30.9 °F 19.8 °F 19.0 °F 61% 29.89 in 10.0 mi West 16.1 mph 25.3 mph N/A   Clear
5:53 AM 30.0 °F 19.1 °F 17.1 °F 59% 29.92 in 10.0 mi West 15.0 mph 24.2 mph N/A   Clear
6:53 AM 27.0 °F 20.5 °F 16.0 °F 63% 29.96 in 10.0 mi West 5.8 mph - N/A   Clear
7:53 AM 25.0 °F 13.1 °F 12.0 °F 58% 30.01 in 10.0 mi West 13.8 mph 24.2 mph N/A   Clear
8:53 AM 24.1 °F 12.5 °F 12.0 °F 60% 30.05 in 10.0 mi West 12.7 mph 23.0 mph N/A   Clear
9:53 AM 25.0 °F 12.6 °F 10.9 °F 55% 30.08 in 10.0 mi West 15.0 mph 24.2 mph N/A   Clear
10:53 AM 25.0 °F 14.2 °F 10.0 °F 53% 30.10 in 10.0 mi West 11.5 mph 24.2 mph N/A   Clear
11:53 AM 26.1 °F 13.6 °F 10.0 °F 51% 30.12 in 10.0 mi West 16.1 mph 26.5 mph N/A   Clear
12:53 PM 26.1 °F 15.0 °F 10.9 °F 53% 30.15 in 10.0 mi West 12.7 mph 24.2 mph N/A   Scattered Clouds
1:53 PM 25.0 °F 12.2 °F 10.9 °F 55% 30.17 in 10.0 mi West 16.1 mph 26.5 mph N/A   Scattered Clouds
2:53 PM 26.1 °F 14.5 °F 10.0 °F 51% 30.20 in 10.0 mi WNW 13.8 mph 24.2 mph N/A   Partly Cloudy
3:53 PM 24.1 °F 11.5 °F 10.0 °F 55% 30.25 in 10.0 mi WNW 15.0 mph 19.6 mph N/A   Clear
4:53 PM 21.9 °F 12.5 °F 10.0 °F 60% 30.28 in 10.0 mi NW 8.1 mph - N/A   Clear
5:53 PM 21.0 °F 11.4 °F 10.9 °F 65% 30.32 in 10.0 mi WNW 8.1 mph - N/A   Partly Cloudy
6:53 PM 21.9 °F 11.0 °F 10.9 °F 63% 30.35 in 10.0 mi NNW 10.4 mph - N/A   Overcast
7:53 PM 19.9 °F 12.1 °F 10.9 °F 68% 30.37 in 10.0 mi NW 5.8 mph - N/A   Mostly Cloudy
8:53 PM 18.0 °F 8.7 °F 10.0 °F 71% 30.38 in 10.0 mi WNW 6.9 mph - N/A   Clear
9:53 PM 17.1 °F 11.7 °F 10.0 °F 74% 30.38 in 10.0 mi WSW 3.5 mph - N/A   Clear
10:53 PM 15.1 °F 5.2 °F 9.0 °F 77% 30.39 in 10.0 mi WSW 6.9 mph - N/A   Clear
11:53 PM 18.0 °F 11.1 °F 12.0 °F 78% 30.42 in 10.0 mi West 4.6 mph - N/A   Overcast